COSMOS 886 DEB, 9964

Orbit data source: Space-Track

COSMOS 886 DEB, 9964 is space debris in LEO originally from a launch on Mon, 27 Dec 1976 UTC launched from the Tyuratam Missile And Space Complex (TTMTR). Debris objects in space refer to the collection of defunct objects orbiting the Earth. Examples of debris include non-operational satellites, rocket bodies, and fragments generated from explosions, collisions, or faulty payload assembly.

Loading next visibility...
Identifier
9964, 1976-126BE
Orbit
LEO
Country
Flag of CISCIS
Related business
Manufacturer
Unknown
Mission
Spacecraft
Bus & Motor
Unknown
Mass
Unknown
Launch date (UTC)
1976-12-27 (49 years ago)
Launch vehicle
Unknown
Launch site
Tyuratam Missile And Space Complex (TTMTR)
Object type
Payload
Rocket body
Debris
Shape & HBR
Unknown shape, 0.1 m
Radar Cross Section
Medium (>0.1 m² and <1 m²)

Expand to show TLE details & history
Last TLE update: 2 days ago

TLE from 2 days ago
0 COSMOS 886 DEB
1 09964U 76126BE  26174.02973354  .00000738  00000-0  38366-3 0  9990
2 09964  65.7696 176.4071 0814153 285.4415  65.8187 13.15075523326352
Epoch: 2026-06-23T00:42Z
TLE epoch observation values (Epoch: 2026-06-23T00:42:48.977Z)
Latitude
-0.00005°
Longitude
-105.50415°
Altitude
996.508 km
Speed
7.454 km/s
True Right ascension
11h 45m 37s
True Declination
0° 00' 00"
Sunlit
Object was in daylight at epoch
Visualization orbit readout
Latitude
Unknown
Longitude
Unknown
Altitude
Unknown
Speed
Unknown
Apparent Right ascension
Unknown
Apparent Declination
Unknown
Sunlit
N/A
Visualization observer readout
Local Sidereal Time
14:43:38
Azimuth
Unknown
Elevation
Unknown
Doppler factor
Unknown
Orbital elements
Apogee altitude
1,819.293 km
Perigee altitude
584.991 km
Semi-major axis
7,580.279 km
Eccentricity
0.08142
Inclination
65.7696°
RAAN
176.4071°
Arg. of periapsis
285.4415°
True anomaly
74.66369°
Mean anomaly
65.8187°
Eccentric anomaly
70.20789°
Mean motion
3.28863 °/min
Orbital period
109.47 mins
BSTAR
0.00038366
Loading maneuver chart data...
Computing Atmospheric mass density...

Documentation

Showing up to 5 results
|